Puerto Vallarta, Mexico

1:08 AM CDT on October 16, 2018 (GMT -0500)
Lic Gustavo Diaz Ordaz International

Weather History for MMPR - June, 2018

Change the Weather History Date:

Thursday, June 14, 2018

  Actual Average Record
Temperature  
Mean Temperature 84 °F -  
Max Temperature 91 °F 87 °F 93 °F (2012)
Min Temperature 77 °F 74 °F 73 °F (2005)
Cooling Degree Days 19    
Growing Degree Days 34 (Base 50)    
Moisture  
Dew Point 78 °F    
Average Humidity 83    
Maximum Humidity 100    
Minimum Humidity 52    
Precipitation  
Precipitation 0.00 in - - ()
Sea Level Pressure  
Sea Level Pressure 29.82 in    
Wind  
Wind Speed 4 mph ()    
Max Wind Speed 14 mph    
Max Gust Speed -    
Visibility 13.7 miles    
Events      
Averages and records for this station are not official NWS values.
T = Trace of Precipitation, MM = Missing Value Source: Averaged Metar Reports

Daily Weather History Graph

Daily Weather History Graph

Search for Another Location

Airport or City:

Astronomy

Jun. 14, 2018 Rise Set
Actual Time 7:19 AM CDT 8:42 PM CDT
Civil Twilight 6:55 AM CDT 9:07 PM CDT
Nautical Twilight 6:25 AM CDT 9:36 PM CDT
Astronomical Twilight 5:55 AM CDT 10:07 PM CDT
Moon 8:13 AM CDT (6/14) 9:51 PM CDT (6/14)
Length of Visible Light 14h 12m
Length of Day
13h 22m
New Moon, 1% of the Moon is Illuminated
Jun 14
New Moon
Jun 20
First Quarter
Jun 27
Full
Jul 6
Last Quarter
Jul 12
New

Hourly Weather History & Observations

Time (CDT) Temp. Heat Index Dew Point Humidity Pressure Visibility Wind Dir Wind Speed Gust Speed Precip Events Conditions
12:47 AM 82.4 °F 90.9 °F 77.0 °F 84% 29.85 in 12.0 mi NNE 4.6 mph - N/A   Scattered Clouds
1:47 AM 80.6 °F 89.3 °F 80.6 °F 100% 29.84 in 10.0 mi NE 2.3 mph - N/A   Mostly Cloudy
2:41 AM 78.8 °F - 78.8 °F 100% 29.84 in 10.0 mi North 3.5 mph - N/A   Mostly Cloudy
3:45 AM 78.8 °F - 78.8 °F 100% 29.82 in 12.0 mi NE 2.3 mph - N/A   Mostly Cloudy
4:53 AM 78.8 °F - 78.8 °F 100% 29.81 in 12.0 mi NE 3.5 mph - N/A   Mostly Cloudy
5:43 AM 78.8 °F - 78.8 °F 100% 29.81 in 12.0 mi NNE 3.5 mph - N/A   Mostly Cloudy
6:42 AM 77.0 °F - 77.0 °F 100% 29.81 in 15.0 mi North 3.5 mph - N/A   Mostly Cloudy
7:46 AM 78.8 °F - 78.8 °F 100% 29.82 in 15.0 mi Calm Calm - N/A   Mostly Cloudy
8:42 AM 78.8 °F - 78.8 °F 100% 29.84 in 15.0 mi Calm Calm - N/A   Mostly Cloudy
9:46 AM 82.4 °F 90.9 °F 77.0 °F 84% 29.84 in 15.0 mi Calm Calm - N/A   Mostly Cloudy
10:50 AM 86.0 °F 96.9 °F 77.0 °F 74% 29.85 in 15.0 mi West 4.6 mph - N/A   Mostly Cloudy
11:44 AM 89.6 °F 99.8 °F 75.2 °F 62% 29.84 in 15.0 mi WSW 4.6 mph - N/A   Mostly Cloudy
12:44 PM 91.4 °F 98.4 °F 71.6 °F 52% 29.83 in 15.0 mi WSW 5.8 mph - N/A   Mostly Cloudy
1:45 PM 87.8 °F 99.7 °F 77.0 °F 70% 29.82 in 15.0 mi WSW 12.7 mph - N/A   Mostly Cloudy
2:43 PM 89.6 °F 102.2 °F 77.0 °F 66% 29.81 in 15.0 mi West 10.4 mph - N/A   Partly Cloudy
3:48 PM 87.8 °F 104.9 °F 80.6 °F 79% 29.79 in 15.0 mi WNW 12.7 mph - N/A   Partly Cloudy
4:46 PM 86.0 °F 99.3 °F 78.8 °F 79% 29.78 in 15.0 mi West 11.5 mph - N/A   Scattered Clouds
5:42 PM 89.6 °F 102.2 °F 77.0 °F 66% 29.77 in 15.0 mi West 13.8 mph - N/A   Scattered Clouds
6:45 PM 87.8 °F 102.5 °F 78.8 °F 75% 29.76 in 15.0 mi WNW 9.2 mph - N/A   Mostly Cloudy
7:47 PM 86.0 °F 99.3 °F 78.8 °F 79% 29.79 in 15.0 mi NNW 5.8 mph - N/A   Mostly Cloudy
8:45 PM 84.2 °F 94.1 °F 77.0 °F 79% 29.82 in 15.0 mi North 4.6 mph - N/A   Mostly Cloudy
9:46 PM 84.2 °F 94.1 °F 77.0 °F 79% 29.83 in 12.0 mi NE 6.9 mph - N/A   Scattered Clouds
10:46 PM 82.4 °F 89.5 °F 75.2 °F 79% 29.86 in 12.0 mi North 6.9 mph - N/A   Scattered Clouds
11:44 PM 82.4 °F 89.5 °F 75.2 °F 79% 29.88 in 12.0 mi NW 4.6 mph - N/A   Scattered Clouds